Location: Newark
(42.9858°N, 0.6717°E)
Time: 13:36:56
(UTC+00:00)

S-56A Canister/Altair - Pass Details

Date: 29 November 2019
Orbit: 632 x 2500 km, 38.9° (Epoch: 15 December)

Event Time Altitude Azimuth Distance (km) Brightness Sun altitude
Rises 11:47:44 0° 209° (SSW) 6,144 13.1 25.5°
Reaches altitude 10° 11:52:19 10° 201° (SSW) 5,154 13.2 25.5°
Maximum altitude 12:04:51 34° 145° (SE) 3,327 11.8 25.4°
Drops below altitude 10° 12:15:22 10° 87° (E) 4,338 11.3 25.2°
Sets 12:18:48 0° 78° (ENE) 5,089 11.5 25.1°
